DateTime,Voltage,Setpoint_Voltage,VVC_ClosedLoop_Enabled,Real_Power
 03/09/2018 00:00:00,11.25,11.22,1,-4.69
 03/09/2018 00:15:00,11.25,11.22,1,-4.69
 03/09/2018 00:30:00,11.25,11.22,1,-4.69
 03/09/2018 00:45:00,11.25,11.22,1,-4.69
 03/09/2018 01:00:00,11.25,11.22,1,-4.69
 03/09/2018 01:15:00,11.25,11.22,1,-4.69
 03/09/2018 01:30:00,11.25,11.22,1,-4.69
 03/09/2018 01:45:00,11.25,11.22,1,-4.69
 03/09/2018 02:00:00,11.25,11.22,1,-4.69
 03/09/2018 02:15:00,11.25,11.22,1,-4.69
 03/09/2018 02:30:00,11.25,11.22,1,-4.69
 03/09/2018 02:45:00,11.25,11.22,1,-4.69
 03/09/2018 03:00:00,11.25,11.22,1,-4.69
 03/09/2018 03:15:00,11.25,11.22,1,-4.69
 03/09/2018 03:30:00,11.25,11.22,1,-4.69
 03/09/2018 03:45:00,11.25,11.22,1,-4.69
 03/09/2018 04:00:00,11.25,11.22,1,-4.69
 03/09/2018 04:15:00,11.25,11.22,1,-4.69
 03/09/2018 04:30:00,11.25,11.22,1,-4.69
 03/09/2018 04:45:00,11.25,11.22,1,-4.69
 03/09/2018 05:00:00,11.25,11.22,1,-4.69
 03/09/2018 05:15:00,11.25,11.22,1,-4.69
 03/09/2018 05:30:00,11.25,11.22,1,-4.69
 03/09/2018 05:45:00,11.25,11.22,1,-4.69
 03/09/2018 06:00:00,11.25,11.22,1,-4.69
 03/09/2018 06:15:00,11.25,11.22,1,-4.69
 03/09/2018 06:30:00,11.25,11.22,1,-4.69
 03/09/2018 06:45:00,11.25,11.22,1,-4.69
 03/09/2018 07:00:00,11.25,11.22,1,-4.69
 03/09/2018 07:15:00,11.25,11.22,1,-4.69
 03/09/2018 07:30:00,11.25,11.22,1,-4.69
 03/09/2018 07:45:00,11.25,11.22,1,-4.69
 03/09/2018 08:00:00,11.25,11.22,1,-4.69
 03/09/2018 08:15:00,11.25,11.22,1,-4.69
 03/09/2018 08:30:00,11.25,11.22,1,-4.69
 03/09/2018 08:45:00,11.25,11.22,1,-4.69
 03/09/2018 09:00:00,11.24,11.22,1,-6.66
 03/09/2018 09:15:00,11.23,11.22,1,-7.36
 03/09/2018 09:30:00,11.22,11.22,1,-7.39
 03/09/2018 09:45:00,11.25,11.21,2,-7.4
 03/09/2018 10:00:00,11.32,11.21,2,-7.38
 03/09/2018 10:15:00,11.32,11.21,2,-7.31
 03/09/2018 10:30:00,11.3,11.21,2,-7.35
 03/09/2018 10:45:00,11.28,11.21,2,-7.47
 03/09/2018 11:00:00,11.32,11.21,2,-7.36
 03/09/2018 11:15:00,11.31,11.21,2,-7.32
 03/09/2018 11:30:00,11.28,11.21,2,-7.3
 03/09/2018 11:45:00,11.26,11.21,2,-7.46
 03/09/2018 12:00:00,11.24,11.21,2,-7.46
 03/09/2018 12:15:00,11.24,11.21,2,-7.52
 03/09/2018 12:30:00,11.24,11.21,2,-7.4
 03/09/2018 12:45:00,11.26,11.21,2,-7.21
 03/09/2018 13:00:00,11.27,11.21,2,-7.16
 03/09/2018 13:15:00,11.31,11.21,2,-7.07
 03/09/2018 13:30:00,11.3,11.21,2,-7.19
 03/09/2018 13:45:00,11.28,11.21,2,-7.43
 03/09/2018 14:00:00,11.28,11.21,2,-7.38
 03/09/2018 14:15:00,11.3,11.21,2,-6.89
 03/09/2018 14:30:00,11.31,11.21,2,-6.98
 03/09/2018 14:45:00,11.29,11.21,2,-6.86
 03/09/2018 15:00:00,11.27,11.21,2,-7.08
 03/09/2018 15:15:00,11.29,11.21,2,-7.12
 03/09/2018 15:30:00,11.3,11.21,2,-7.09
 03/09/2018 15:45:00,11.3,11.21,2,-7.4
 03/09/2018 16:00:00,11.29,11.21,2,-7.44
 03/09/2018 16:15:00,11.33,11.21,2,-7.41
 03/09/2018 16:30:00,11.32,11.21,2,-7.53
 03/09/2018 16:45:00,11.32,11.21,2,-7.4
 03/09/2018 17:00:00,11.34,11.21,2,-7.33
 03/09/2018 17:15:00,11.34,11.21,2,-7.51
 03/09/2018 17:30:00,11.29,11.21,2,-7.52
 03/09/2018 17:45:00,11.29,11.21,2,-7.29
 03/09/2018 18:00:00,11.28,11.21,2,-7.21
 03/09/2018 18:15:00,11.29,11.21,2,-7.3
 03/09/2018 18:30:00,11.1,11.04,2,-7.24
 03/09/2018 18:45:00,11.06,11.0,2,-6.93
 03/09/2018 19:00:00,11.01,11.0,2,-7.34
 03/09/2018 19:15:00,11.04,11.0,2,-7.39
 03/09/2018 19:30:00,11.09,11.0,2,-7.32
 03/09/2018 19:45:00,11.06,11.0,2,-7.49
 03/09/2018 20:00:00,11.05,11.0,2,-7.5
 03/09/2018 20:15:00,11.05,11.0,2,-7.6
 03/09/2018 20:30:00,11.07,11.0,2,-7.52
 03/09/2018 20:45:00,11.06,11.0,2,-7.53
 03/09/2018 21:00:00,11.08,11.0,2,-7.43
 03/09/2018 21:15:00,11.11,11.0,2,-7.28
 03/09/2018 21:30:00,11.16,11.0,2,-7.11
 03/09/2018 21:45:00,11.15,11.0,2,-6.98
 03/09/2018 22:00:00,11.13,11.0,2,-6.85
 03/09/2018 22:15:00,11.13,11.0,2,-6.64
 03/09/2018 22:30:00,11.13,11.0,2,-6.51
 03/09/2018 22:45:00,11.15,11.0,2,-6.49
 03/09/2018 23:00:00,11.14,11.0,2,-6.36
 03/09/2018 23:15:00,11.11,11.0,2,-6.26
 03/09/2018 23:30:00,11.04,11.0,2,-6.05
 03/09/2018 23:45:00,11.09,11.0,2,-5.99
 04/09/2018 00:00:00,11.08,11.0,2,-6.02
 04/09/2018 00:15:00,11.08,11.0,2,-5.99
 04/09/2018 00:30:00,11.09,11.0,2,-6.08
 04/09/2018 00:45:00,11.13,11.0,2,-5.95
 04/09/2018 01:00:00,11.12,11.0,2,-6.01
 04/09/2018 01:15:00,11.1,11.0,2,-5.98
 04/09/2018 01:30:00,11.11,11.0,2,-5.9
 04/09/2018 01:45:00,11.13,11.0,2,-5.98
 04/09/2018 02:00:00,11.12,11.0,2,-6.0
 04/09/2018 02:15:00,11.03,11.0,2,-5.84
 04/09/2018 02:30:00,11.05,11.0,2,-5.59
 04/09/2018 02:45:00,11.06,11.0,2,-5.82
 04/09/2018 03:00:00,11.04,11.0,2,-5.79
 04/09/2018 03:15:00,11.04,11.0,2,-5.83
 04/09/2018 03:30:00,11.02,11.0,2,-5.95
 04/09/2018 03:45:00,11.04,11.0,2,-5.81
 04/09/2018 04:00:00,11.03,11.0,2,-5.82
 04/09/2018 04:15:00,11.03,11.0,2,-5.88
 04/09/2018 04:30:00,11.04,11.0,2,-5.89
 04/09/2018 04:45:00,11.02,11.0,2,-6.08
 04/09/2018 05:00:00,11.0,11.0,2,-6.14
 04/09/2018 05:15:00,11.0,11.0,2,-6.19
 04/09/2018 05:30:00,10.98,11.0,2,-6.19
 04/09/2018 05:45:00,10.97,11.0,2,-6.41
 04/09/2018 06:00:00,10.95,11.0,2,-6.58
 04/09/2018 06:15:00,10.93,11.0,2,-6.89
 04/09/2018 06:30:00,10.96,11.0,2,-6.83
 04/09/2018 06:45:00,10.96,11.0,2,-6.93
 04/09/2018 07:00:00,10.96,11.0,2,-7.21
 04/09/2018 07:15:00,10.92,11.0,2,-7.46
 04/09/2018 07:30:00,11.02,11.0,2,-7.77
 04/09/2018 07:45:00,11.02,11.0,2,-7.71
 04/09/2018 08:00:00,11.02,11.0,2,-7.7
 04/09/2018 08:15:00,11.05,11.0,2,-7.64
 04/09/2018 08:30:00,10.99,11.0,2,-7.57
 04/09/2018 08:45:00,10.97,11.0,2,-7.49
 04/09/2018 09:00:00,10.97,11.0,2,-7.48
 04/09/2018 09:15:00,10.96,11.0,2,-7.5
 04/09/2018 09:30:00,10.96,11.0,2,-7.52
 04/09/2018 09:45:00,10.97,11.0,2,-7.59
 04/09/2018 10:00:00,10.99,11.0,2,-7.57
 04/09/2018 10:15:00,11.02,11.0,2,-7.45
 04/09/2018 10:30:00,11.02,11.0,2,-7.54
 04/09/2018 10:45:00,11.06,11.0,2,-7.77
 04/09/2018 11:00:00,11.06,11.0,2,-7.69
 04/09/2018 11:15:00,11.04,11.0,2,-7.81
 04/09/2018 11:30:00,11.05,11.0,2,-7.66
 04/09/2018 11:45:00,11.05,11.0,2,-7.66
 04/09/2018 12:00:00,11.05,11.0,2,-7.74
 04/09/2018 12:15:00,11.06,11.0,2,-7.71
 04/09/2018 12:30:00,11.07,11.0,2,-7.92
 04/09/2018 12:45:00,11.09,11.0,2,-7.83
 04/09/2018 13:00:00,11.1,11.0,2,-7.8
 04/09/2018 13:15:00,11.1,11.0,2,-7.68
 04/09/2018 13:30:00,11.13,11.0,2,-7.57
 04/09/2018 13:45:00,11.13,11.0,2,-7.45
 04/09/2018 14:00:00,11.15,11.0,2,-7.43
 04/09/2018 14:15:00,11.13,11.0,2,-7.75
 04/09/2018 14:30:00,11.01,11.0,2,-7.77
 04/09/2018 14:45:00,10.94,11.0,2,-7.63
 04/09/2018 15:00:00,11.01,11.0,2,-7.65
 04/09/2018 15:15:00,11.03,11.0,2,-7.67
 04/09/2018 15:30:00,11.02,11.0,2,-7.91
 04/09/2018 15:45:00,11.0,11.0,2,-7.97
 04/09/2018 16:00:00,11.08,11.0,2,-8.05
 04/09/2018 16:15:00,11.05,11.0,2,-7.88
 04/09/2018 16:30:00,11.02,11.0,2,-8.06
 04/09/2018 16:45:00,11.03,11.0,2,-8.08
 04/09/2018 17:00:00,11.0,11.0,2,-8.4
 04/09/2018 17:15:00,11.01,11.0,2,-8.37
 04/09/2018 17:30:00,11.03,11.0,2,-8.14
 04/09/2018 17:45:00,11.04,11.0,2,-7.93
 04/09/2018 18:00:00,11.05,11.0,2,-7.92
 04/09/2018 18:15:00,11.06,11.0,2,-7.88
 04/09/2018 18:30:00,11.07,11.0,2,-7.78
 04/09/2018 18:45:00,11.05,11.0,2,-7.7
 04/09/2018 19:00:00,11.05,11.0,2,-7.84
 04/09/2018 19:15:00,11.05,11.0,2,-7.65
 04/09/2018 19:30:00,11.05,11.0,2,-7.68
 04/09/2018 19:45:00,11.05,11.0,2,-7.6
 04/09/2018 20:00:00,11.06,11.0,2,-7.6
 04/09/2018 20:15:00,11.03,11.0,2,-7.76
 04/09/2018 20:30:00,11.04,11.0,2,-7.82
 04/09/2018 20:45:00,11.05,11.0,2,-7.78
 04/09/2018 21:00:00,11.1,11.0,2,-7.58
 04/09/2018 21:15:00,11.11,11.0,2,-7.49
 04/09/2018 21:30:00,11.1,11.0,2,-7.39
 04/09/2018 21:45:00,11.1,11.0,2,-7.19
 04/09/2018 22:00:00,11.12,11.0,2,-6.91
 04/09/2018 22:15:00,11.15,11.0,2,-6.75
 04/09/2018 22:30:00,11.12,11.0,2,-6.58
 04/09/2018 22:45:00,11.11,11.0,2,-6.7
 04/09/2018 23:00:00,11.02,11.0,2,-6.77
 04/09/2018 23:15:00,11.06,11.0,2,-6.4
 04/09/2018 23:30:00,11.06,11.0,2,-6.37
 04/09/2018 23:45:00,11.08,11.0,2,-6.48
 05/09/2018 00:00:00,11.09,11.0,2,-6.31
 05/09/2018 00:15:00,11.09,11.0,2,-5.9
 05/09/2018 00:30:00,11.08,11.0,2,-5.69
 05/09/2018 00:45:00,11.05,11.0,2,-5.91
 05/09/2018 01:00:00,11.03,11.0,2,-6.09
 05/09/2018 01:15:00,11.02,11.0,2,-6.27
 05/09/2018 01:30:00,11.05,11.0,2,-6.3
 05/09/2018 01:45:00,11.04,11.0,2,-6.16
 05/09/2018 02:00:00,11.06,11.0,2,-6.18
 05/09/2018 02:15:00,11.06,11.0,2,-6.06
 05/09/2018 02:30:00,11.1,11.0,2,-5.75
 05/09/2018 02:45:00,11.12,11.0,2,-5.57
 05/09/2018 03:00:00,11.06,11.0,2,-5.73
 05/09/2018 03:15:00,11.05,11.0,2,-5.79
 05/09/2018 03:30:00,11.06,11.0,2,-5.73
 05/09/2018 03:45:00,11.07,11.0,2,-5.58
 05/09/2018 04:00:00,11.08,11.0,2,-5.53
 05/09/2018 04:15:00,11.08,11.0,2,-5.69
 05/09/2018 04:30:00,11.08,11.0,2,-5.66
 05/09/2018 04:45:00,11.06,11.0,2,-5.8
 05/09/2018 05:00:00,11.07,11.0,2,-5.93
 05/09/2018 05:15:00,11.1,11.0,2,-6.06
 05/09/2018 05:30:00,11.02,11.0,2,-6.37
 05/09/2018 05:45:00,10.96,11.0,2,-6.61
 05/09/2018 06:00:00,10.95,11.0,2,-6.71
 05/09/2018 06:15:00,10.94,11.0,2,-6.84
 05/09/2018 06:30:00,10.97,11.0,2,-6.94
 05/09/2018 06:45:00,10.95,11.0,2,-7.13
 05/09/2018 07:00:00,11.03,11.0,2,-7.47
 05/09/2018 07:15:00,10.98,11.0,2,-7.68
 05/09/2018 07:30:00,11.0,11.0,2,-7.59
 05/09/2018 07:45:00,11.0,11.0,2,-7.56
 05/09/2018 08:00:00,11.03,11.0,2,-7.75
 05/09/2018 08:15:00,11.03,11.0,2,-7.74
 05/09/2018 08:30:00,11.01,11.0,2,-7.79
 05/09/2018 08:45:00,10.99,11.0,2,-7.67
 05/09/2018 09:00:00,11.0,11.0,2,-7.68
 05/09/2018 09:15:00,11.0,11.0,2,-7.62
 05/09/2018 09:30:00,11.0,11.0,2,-7.7
 05/09/2018 09:45:00,11.0,11.0,2,-7.67
 05/09/2018 10:00:00,11.0,11.0,2,-7.5
 05/09/2018 10:15:00,11.0,11.0,2,-7.52
 05/09/2018 10:30:00,11.03,11.0,2,-7.52
 05/09/2018 10:45:00,11.01,11.0,2,-7.66
 05/09/2018 11:00:00,11.01,11.0,2,-7.4
 05/09/2018 11:15:00,10.99,11.0,2,-7.55
 05/09/2018 11:30:00,10.97,11.0,2,-7.65
 05/09/2018 11:45:00,10.98,11.0,2,-7.79
 05/09/2018 12:00:00,11.0,11.0,2,-7.56
 05/09/2018 12:15:00,10.98,11.0,2,-7.88
 05/09/2018 12:30:00,10.99,11.0,2,-7.86
 05/09/2018 12:45:00,11.01,11.0,2,-7.85
 05/09/2018 13:00:00,11.01,11.0,2,-7.81
 05/09/2018 13:15:00,11.02,11.0,2,-7.59
 05/09/2018 13:30:00,11.02,11.0,2,-7.51
 05/09/2018 13:45:00,11.02,11.0,2,-7.6
 05/09/2018 14:00:00,11.02,11.0,2,-7.69
 05/09/2018 14:15:00,11.07,11.0,2,-7.19
 05/09/2018 14:30:00,11.04,11.0,2,-7.32
 05/09/2018 14:45:00,11.04,11.0,2,-7.14
 05/09/2018 15:00:00,11.05,11.0,2,-7.4
 05/09/2018 15:15:00,11.07,11.0,2,-7.54
 05/09/2018 15:30:00,11.07,11.0,2,-7.47
 05/09/2018 15:45:00,11.05,11.0,2,-7.63
 05/09/2018 16:00:00,11.05,11.0,2,-7.58
 05/09/2018 16:15:00,11.09,11.0,2,-7.64
 05/09/2018 16:30:00,11.09,11.0,2,-7.75
 05/09/2018 16:45:00,11.08,11.0,2,-8.12
 05/09/2018 17:00:00,11.11,11.0,2,-7.99
 05/09/2018 17:15:00,11.08,11.0,2,-7.9
 05/09/2018 17:30:00,11.06,11.0,2,-8.01
 05/09/2018 17:45:00,11.07,11.0,2,-7.87
 05/09/2018 18:00:00,11.08,11.0,2,-7.81
 05/09/2018 18:15:00,11.1,11.0,2,-7.84
 05/09/2018 18:30:00,11.09,11.0,2,-7.78
 05/09/2018 18:45:00,11.1,11.0,2,-7.77
 05/09/2018 19:00:00,11.1,11.0,2,-7.66
 05/09/2018 19:15:00,11.09,11.0,2,-7.63
 05/09/2018 19:30:00,11.06,11.0,2,-7.72
 05/09/2018 19:45:00,11.04,11.0,2,-7.74
 05/09/2018 20:00:00,11.02,11.0,2,-7.86
 05/09/2018 20:15:00,11.0,11.0,2,-7.79
 05/09/2018 20:30:00,11.02,11.0,2,-7.78
 05/09/2018 20:45:00,11.03,11.0,2,-7.83
 05/09/2018 21:00:00,11.06,11.0,2,-7.62
 05/09/2018 21:15:00,11.09,11.0,2,-7.64
 05/09/2018 21:30:00,11.12,11.0,2,-7.75
 05/09/2018 21:45:00,11.09,11.0,2,-7.56
 05/09/2018 22:00:00,11.09,11.0,2,-7.17
 05/09/2018 22:15:00,11.12,11.0,2,-6.96
 05/09/2018 22:30:00,11.13,11.0,2,-6.96
 05/09/2018 22:45:00,11.15,11.0,2,-6.81
 05/09/2018 23:00:00,11.17,11.0,2,-6.63
 05/09/2018 23:15:00,11.04,11.0,2,-6.59
 05/09/2018 23:30:00,11.07,11.0,2,-6.48
 05/09/2018 23:45:00,11.06,11.0,2,-6.27
 06/09/2018 00:00:00,11.04,11.0,2,-6.31
 06/09/2018 00:15:00,11.07,11.0,2,-6.19
 06/09/2018 00:30:00,11.1,11.0,2,-6.02
 06/09/2018 00:45:00,11.11,11.0,2,-5.97
 06/09/2018 01:00:00,11.13,11.0,2,-5.96
 06/09/2018 01:15:00,11.1,11.0,2,-6.05
 06/09/2018 01:30:00,11.08,11.0,2,-6.13
 06/09/2018 01:45:00,11.06,11.0,2,-6.03
 06/09/2018 02:00:00,11.11,11.0,2,-5.87
 06/09/2018 02:15:00,11.1,11.0,2,-5.91
 06/09/2018 02:30:00,11.11,11.0,2,-5.83
 06/09/2018 02:45:00,11.15,11.0,2,-5.73
 06/09/2018 03:00:00,11.15,11.0,2,-5.8
 06/09/2018 03:15:00,11.12,11.0,2,-5.93
 06/09/2018 03:30:00,11.11,11.0,2,-5.9
 06/09/2018 03:45:00,11.12,11.0,2,-5.83
 06/09/2018 04:00:00,11.13,11.0,2,-5.88
 06/09/2018 04:15:00,11.13,11.0,2,-5.78
 06/09/2018 04:30:00,11.11,11.0,2,-5.88
 06/09/2018 04:45:00,11.1,11.0,2,-5.81
 06/09/2018 05:00:00,11.1,11.0,2,-5.92
 06/09/2018 05:15:00,11.06,11.0,2,-5.96
 06/09/2018 05:30:00,11.06,11.0,2,-6.03
 06/09/2018 05:45:00,11.06,11.0,2,-6.15
 06/09/2018 06:00:00,11.01,11.0,2,-6.27
 06/09/2018 06:15:00,10.95,11.0,2,-6.56
 06/09/2018 06:30:00,10.98,11.0,2,-6.86
 06/09/2018 06:45:00,10.98,11.0,2,-7.25
 06/09/2018 07:00:00,10.97,11.0,2,-7.45
 06/09/2018 07:15:00,10.95,11.0,2,-7.55
 06/09/2018 07:30:00,10.95,11.0,2,-7.78
 06/09/2018 07:45:00,10.91,11.0,2,-7.88
 06/09/2018 08:00:00,10.93,11.0,2,-7.9
 06/09/2018 08:15:00,10.97,11.0,2,-7.89
 06/09/2018 08:30:00,11.03,11.0,2,-8.0
 06/09/2018 08:45:00,11.03,11.0,2,-7.84
 06/09/2018 09:00:00,11.04,11.0,2,-7.91
 06/09/2018 09:15:00,11.01,11.0,2,-7.87
 06/09/2018 09:30:00,11.01,11.0,2,-7.95
 06/09/2018 09:45:00,11.01,11.0,2,-8.14
 06/09/2018 10:00:00,11.03,11.0,2,-7.93
 06/09/2018 10:15:00,11.05,11.0,2,-7.84
 06/09/2018 10:30:00,11.04,11.0,2,-7.77
 06/09/2018 10:45:00,11.02,11.0,2,-7.8
 06/09/2018 11:00:00,11.01,11.0,2,-7.84
 06/09/2018 11:15:00,10.99,11.0,2,-8.0
 06/09/2018 11:30:00,11.02,11.02,2,-8.23
 06/09/2018 11:45:00,11.22,11.22,2,-8.17
 06/09/2018 12:00:00,11.24,11.21,2,-8.12
 06/09/2018 12:15:00,11.25,11.21,2,-7.92
 06/09/2018 12:30:00,11.27,11.21,2,-7.87
 06/09/2018 12:45:00,11.26,11.21,2,-8.07
 06/09/2018 13:00:00,11.24,11.21,2,-8.12
 06/09/2018 13:15:00,11.25,11.21,2,-7.87
 06/09/2018 13:30:00,11.24,11.21,2,-7.91
 06/09/2018 13:45:00,11.21,11.21,2,-7.98
 06/09/2018 14:00:00,11.21,11.21,2,-7.84
 06/09/2018 14:15:00,11.19,11.21,2,-7.83
 06/09/2018 14:30:00,11.19,11.21,2,-7.86
 06/09/2018 14:45:00,11.21,11.21,2,-7.98
 06/09/2018 15:00:00,11.21,11.21,2,-8.0
 06/09/2018 15:15:00,11.23,11.21,2,-7.89
 06/09/2018 15:30:00,11.22,11.21,2,-8.02
 06/09/2018 15:45:00,11.23,11.21,2,-7.86
 06/09/2018 16:00:00,11.19,11.21,2,-7.95
 06/09/2018 16:15:00,11.21,11.21,2,-8.21
 06/09/2018 16:30:00,11.2,11.21,2,-8.45
 06/09/2018 16:45:00,11.17,11.21,2,-8.58
 06/09/2018 17:00:00,11.18,11.21,2,-8.54
 06/09/2018 17:15:00,11.22,11.21,2,-8.45
 06/09/2018 17:30:00,11.21,11.21,2,-8.43
 06/09/2018 17:45:00,11.23,11.21,2,-8.33
 06/09/2018 18:00:00,11.25,11.21,2,-8.17
 06/09/2018 18:15:00,11.27,11.21,2,-7.97
 06/09/2018 18:30:00,11.27,11.21,2,-8.01
 06/09/2018 18:45:00,11.25,11.21,2,-8.27
 06/09/2018 19:00:00,11.27,11.21,2,-8.06
 06/09/2018 19:15:00,11.25,11.21,2,-8.03
 06/09/2018 19:30:00,11.27,11.21,2,-7.91
 06/09/2018 19:45:00,11.26,11.21,2,-8.07
 06/09/2018 20:00:00,11.24,11.21,2,-8.25
 06/09/2018 20:15:00,11.27,11.21,2,-8.1
 06/09/2018 20:30:00,11.29,11.21,2,-7.75
 06/09/2018 20:45:00,11.27,11.21,2,-7.79
 06/09/2018 21:00:00,11.28,11.21,2,-7.82
 06/09/2018 21:15:00,11.31,11.21,2,-7.67
 06/09/2018 21:30:00,11.27,11.21,2,-7.46
 06/09/2018 21:45:00,11.28,11.21,2,-7.38
 06/09/2018 22:00:00,11.3,11.21,2,-7.28
 06/09/2018 22:15:00,11.32,11.21,2,-6.94
 06/09/2018 22:30:00,11.31,11.21,2,-6.74
 06/09/2018 22:45:00,11.32,11.21,2,-6.5
 06/09/2018 23:00:00,11.31,11.21,2,-6.61
 06/09/2018 23:15:00,11.32,11.21,2,-6.34
 06/09/2018 23:30:00,11.25,11.21,2,-6.25
 06/09/2018 23:45:00,11.26,11.21,2,-6.22
 07/09/2018 00:00:00,11.3,11.21,2,-6.13
 07/09/2018 00:15:00,11.33,11.21,2,-6.09
 07/09/2018 00:30:00,11.35,11.21,2,-5.92
 07/09/2018 00:45:00,11.33,11.21,2,-6.06
 07/09/2018 01:00:00,11.32,11.21,2,-6.1
 07/09/2018 01:15:00,11.33,11.21,2,-6.22
 07/09/2018 01:30:00,11.33,11.21,2,-6.13
 07/09/2018 01:45:00,11.3,11.21,2,-6.14
 07/09/2018 02:00:00,11.32,11.21,2,-6.09
 07/09/2018 02:15:00,11.34,11.21,2,-5.99
 07/09/2018 02:30:00,11.35,11.21,2,-5.77
 07/09/2018 02:45:00,11.36,11.21,2,-5.73
 07/09/2018 03:00:00,11.3,11.21,2,-6.04
 07/09/2018 03:15:00,11.27,11.21,2,-6.07
 07/09/2018 03:30:00,11.28,11.21,2,-6.02
 07/09/2018 03:45:00,11.26,11.21,2,-6.02
 07/09/2018 04:00:00,11.27,11.21,2,-5.95
 07/09/2018 04:15:00,11.27,11.21,2,-6.02
 07/09/2018 04:30:00,11.26,11.21,2,-6.03
 07/09/2018 04:45:00,11.24,11.21,2,-5.99
 07/09/2018 05:00:00,11.25,11.21,2,-6.14
 07/09/2018 05:15:00,11.21,11.21,2,-6.28
 07/09/2018 05:30:00,11.23,11.21,2,-6.39
 07/09/2018 05:45:00,11.2,11.21,2,-6.67
 07/09/2018 06:00:00,11.18,11.21,2,-6.72
 07/09/2018 06:15:00,11.14,11.21,2,-7.05
 07/09/2018 06:30:00,11.13,11.21,2,-7.19
 07/09/2018 06:45:00,11.24,11.21,2,-7.39
 07/09/2018 07:00:00,11.31,11.21,2,-7.63
 07/09/2018 07:15:00,11.26,11.21,2,-7.74
 07/09/2018 07:30:00,11.2,11.21,2,-8.11
 07/09/2018 07:45:00,11.24,11.21,2,-8.07
 07/09/2018 08:00:00,11.21,11.21,2,-7.99
 07/09/2018 08:15:00,11.21,11.21,2,-8.13
 07/09/2018 08:30:00,11.18,11.21,2,-8.15
 07/09/2018 08:45:00,11.18,11.21,2,-8.1
 07/09/2018 09:00:00,11.18,11.21,2,-8.2
 07/09/2018 09:15:00,11.18,11.21,2,-8.22
 07/09/2018 09:30:00,11.22,11.21,2,-7.99
 07/09/2018 09:45:00,11.21,11.21,2,-8.06
 07/09/2018 10:00:00,11.21,11.21,2,-8.13
 07/09/2018 10:15:00,11.21,11.21,2,-7.97
 07/09/2018 10:30:00,11.24,11.21,2,-8.0
 07/09/2018 10:45:00,11.21,11.21,2,-7.97
 07/09/2018 11:00:00,11.21,11.21,2,-7.86
 07/09/2018 11:15:00,11.19,11.16,2,-7.94
 07/09/2018 11:30:00,11.16,11.04,2,-7.85
 07/09/2018 11:45:00,11.13,10.96,2,-7.95
 07/09/2018 12:00:00,11.13,10.96,2,-8.06
 07/09/2018 12:15:00,11.11,10.96,2,-7.88
 07/09/2018 12:30:00,11.08,10.96,2,-7.84
 07/09/2018 12:45:00,10.98,10.96,2,-7.87
 07/09/2018 13:00:00,10.99,10.96,2,-7.54
 07/09/2018 13:15:00,11.03,10.96,2,-7.3
 07/09/2018 13:30:00,10.98,10.96,2,-7.51
 07/09/2018 13:45:00,10.98,10.92,2,-7.51
 07/09/2018 14:00:00,11.0,10.91,2,-7.34
 07/09/2018 14:15:00,11.01,10.91,2,-7.05
 07/09/2018 14:30:00,11.01,10.91,2,-7.22
 07/09/2018 14:45:00,11.0,10.91,2,-7.51
 07/09/2018 15:00:00,11.01,10.91,2,-7.41
 07/09/2018 15:15:00,11.16,11.17,2,-7.36
 07/09/2018 15:30:00,11.18,11.14,2,-7.44
 07/09/2018 15:45:00,11.14,11.08,1,-7.73
 07/09/2018 16:00:00,11.18,11.22,1,-7.95
 07/09/2018 16:15:00,11.16,11.22,1,-7.72
 07/09/2018 16:30:00,11.15,11.22,1,-7.69
 07/09/2018 16:45:00,11.18,11.22,1,-7.68
 07/09/2018 17:00:00,11.2,11.22,1,-7.6
 07/09/2018 17:15:00,11.22,11.22,1,-7.67
 07/09/2018 17:30:00,11.2,11.22,1,-7.39
 07/09/2018 17:45:00,11.21,11.22,1,-7.37
 07/09/2018 18:00:00,11.21,11.22,1,-7.59
 07/09/2018 18:15:00,11.23,11.22,1,-7.41
 07/09/2018 18:30:00,11.23,11.22,1,-7.1
 07/09/2018 18:45:00,11.24,11.22,1,-7.27
 07/09/2018 19:00:00,11.24,11.22,1,-7.3
 07/09/2018 19:15:00,11.25,11.22,1,-7.13
 07/09/2018 19:30:00,11.24,11.22,1,-7.24
 07/09/2018 19:45:00,11.23,11.22,1,-7.18
 07/09/2018 20:00:00,11.23,11.22,1,-7.08
 07/09/2018 20:15:00,11.28,11.22,1,-6.97
 07/09/2018 20:30:00,11.3,11.22,1,-6.72
 07/09/2018 20:45:00,11.26,11.22,1,-7.08
 07/09/2018 21:00:00,11.29,11.22,1,-6.97
 07/09/2018 21:15:00,11.28,11.22,1,-6.93
 07/09/2018 21:30:00,11.3,11.22,1,-6.77
 07/09/2018 21:45:00,11.27,11.22,1,-6.87
 07/09/2018 22:00:00,11.27,11.22,1,-6.85
 07/09/2018 22:15:00,11.26,11.22,1,-6.79
 07/09/2018 22:30:00,11.28,11.22,1,-6.63
 07/09/2018 22:45:00,11.3,11.22,1,-6.64
 07/09/2018 23:00:00,11.25,11.22,1,-6.55
 07/09/2018 23:15:00,11.28,11.22,1,-6.45
 07/09/2018 23:30:00,11.29,11.22,1,-6.52
 07/09/2018 23:45:00,11.32,11.22,1,-6.37
 08/09/2018 00:00:00,11.31,11.22,1,-6.23
 08/09/2018 00:15:00,11.31,11.22,1,-6.18
 08/09/2018 00:30:00,11.33,11.22,1,-6.09
 08/09/2018 00:45:00,11.32,11.22,1,-6.16
 08/09/2018 01:00:00,11.3,11.22,1,-6.13
 08/09/2018 01:15:00,11.28,11.22,1,-6.27
 08/09/2018 01:30:00,11.3,11.22,1,-6.24
 08/09/2018 01:45:00,11.32,11.22,1,-6.17
 08/09/2018 02:00:00,11.33,11.22,1,-6.12
 08/09/2018 02:15:00,11.34,11.22,1,-6.16
 08/09/2018 02:30:00,11.35,11.22,1,-6.0
 08/09/2018 02:45:00,11.35,11.22,1,-5.83
 08/09/2018 03:00:00,11.31,11.22,1,-5.88
 08/09/2018 03:15:00,11.22,11.22,1,-5.83
 08/09/2018 03:30:00,11.25,11.22,1,-5.8
 08/09/2018 03:45:00,11.27,11.22,1,-5.9
 08/09/2018 04:00:00,11.27,11.22,1,-5.9
 08/09/2018 04:15:00,11.26,11.22,1,-5.95
 08/09/2018 04:30:00,11.29,11.22,1,-5.84
 08/09/2018 04:45:00,11.28,11.22,1,-5.83
 08/09/2018 05:00:00,11.27,11.22,1,-5.86
 08/09/2018 05:15:00,11.26,11.22,1,-5.86
 08/09/2018 05:30:00,11.29,11.22,1,-5.67
 08/09/2018 05:45:00,11.25,11.22,1,-5.59
 08/09/2018 06:00:00,11.23,11.22,1,-5.2
 08/09/2018 06:15:00,11.22,11.22,1,-5.16
 08/09/2018 06:30:00,11.22,11.22,1,-5.28
 08/09/2018 06:45:00,11.25,11.22,1,-5.21
 08/09/2018 07:00:00,11.27,11.22,1,-5.12
 08/09/2018 07:15:00,11.22,11.22,1,-5.33
 08/09/2018 07:30:00,11.19,11.22,1,-5.53
 08/09/2018 07:45:00,11.17,11.22,1,-5.71
 08/09/2018 08:00:00,11.29,11.22,1,-5.7
 08/09/2018 08:15:00,11.26,11.22,1,-5.82
 08/09/2018 08:30:00,11.23,11.22,1,-5.81
 08/09/2018 08:45:00,11.19,11.22,1,-5.76
 08/09/2018 09:00:00,11.18,11.22,1,-5.72
 08/09/2018 09:15:00,11.17,11.22,1,-5.7
 08/09/2018 09:30:00,11.18,11.22,1,-5.9
 08/09/2018 09:45:00,11.2,11.22,1,-5.92
 08/09/2018 10:00:00,11.27,11.22,1,-5.92
 08/09/2018 10:15:00,11.29,11.22,1,-6.04
 08/09/2018 10:30:00,11.28,11.22,1,-5.84
 08/09/2018 10:45:00,11.32,11.22,1,-5.61
 08/09/2018 11:00:00,11.34,11.22,1,-5.44
 08/09/2018 11:15:00,11.34,11.22,1,-5.46
 08/09/2018 11:30:00,11.32,11.22,1,-5.37
 08/09/2018 11:45:00,11.33,11.22,1,-5.4
 08/09/2018 12:00:00,11.3,11.22,1,-5.29
 08/09/2018 12:15:00,11.32,11.22,1,-5.48
 08/09/2018 12:30:00,11.33,11.22,1,-5.43
 08/09/2018 12:45:00,11.34,11.22,1,-5.33
 08/09/2018 13:00:00,11.35,11.22,1,-5.29
 08/09/2018 13:15:00,11.34,11.22,1,-5.17
 08/09/2018 13:30:00,11.35,11.22,1,-5.19
 08/09/2018 13:45:00,11.35,11.22,1,-5.16
 08/09/2018 14:00:00,11.35,11.22,1,-5.23
 08/09/2018 14:15:00,11.35,11.22,1,-5.15
 08/09/2018 14:30:00,11.33,11.22,1,-5.15
 08/09/2018 14:45:00,11.24,11.22,1,-5.03
 08/09/2018 15:00:00,11.23,11.22,1,-5.02
 08/09/2018 15:15:00,11.23,11.22,1,-5.14
 08/09/2018 15:30:00,11.26,11.22,1,-5.08
 08/09/2018 15:45:00,11.24,11.22,1,-5.01
 08/09/2018 16:00:00,11.23,11.22,1,-5.09
 08/09/2018 16:15:00,11.21,11.22,1,-5.28
 08/09/2018 16:30:00,11.2,11.22,1,-5.31
 08/09/2018 16:45:00,11.18,11.22,1,-5.21
 08/09/2018 17:00:00,11.17,11.22,1,-5.17
 08/09/2018 17:15:00,11.14,11.22,1,-5.29
 08/09/2018 17:30:00,11.12,11.22,1,-5.31
 08/09/2018 17:45:00,11.16,11.22,1,-5.38
 08/09/2018 18:00:00,11.19,11.22,1,-5.47
 08/09/2018 18:15:00,11.19,11.22,1,-5.6
 08/09/2018 18:30:00,11.19,11.22,1,-5.6
 08/09/2018 18:45:00,11.2,11.22,1,-5.59
 08/09/2018 19:00:00,11.21,11.22,1,-5.51
 08/09/2018 19:15:00,11.21,11.22,1,-5.45
 08/09/2018 19:30:00,11.21,11.22,1,-5.46
 08/09/2018 19:45:00,11.23,11.22,1,-5.35
 08/09/2018 20:00:00,11.21,11.22,1,-5.36
 08/09/2018 20:15:00,11.17,11.22,1,-5.37
 08/09/2018 20:30:00,11.19,11.22,1,-5.27
 08/09/2018 20:45:00,11.21,11.22,1,-5.2
 08/09/2018 21:00:00,11.24,11.22,1,-5.11
 08/09/2018 21:15:00,11.26,11.22,1,-4.99
 08/09/2018 21:30:00,11.3,11.22,1,-5.04
 08/09/2018 21:45:00,11.3,11.22,1,-5.06
 08/09/2018 22:00:00,11.27,11.22,1,-4.93
 08/09/2018 22:15:00,11.26,11.22,1,-4.67
 08/09/2018 22:30:00,11.26,11.22,1,-4.69
 08/09/2018 22:45:00,11.28,11.22,1,-4.64
 08/09/2018 23:00:00,11.33,11.22,1,-4.51
 08/09/2018 23:15:00,11.26,11.22,1,-4.33
 08/09/2018 23:30:00,11.27,11.22,1,-4.39
 08/09/2018 23:45:00,11.3,11.22,1,-4.35
 09/09/2018 00:00:00,11.31,11.22,1,-4.3
 09/09/2018 00:15:00,11.31,11.22,1,-4.36